sat.trackr.live / text

‹ back to catalog

STARLINK-2039

NORAD 47655 · 2021-012AM

PAYLOAD ACTIVE UNKNOWN

§ Identity

Operator
Country
US
Launch date
2021-02-16
Launch site
AFETR
Launch vehicle
Mass (kg)
RCS (m²)

Purposes: comms

External: N2YO · Heavens-Above · Gunter

§ Orbital elements

Epoch: 2026-05-25T04:23:23.957952Z

Period
94.01 min
Inclination
53.1601°
Eccentricity
0.0001398
Mean motion
15.31712003 rev/d
Perigee alt
469.7 km
Apogee alt
471.7 km
Semi-major
6,848.8 km
B*
1.6935e-4
RAAN
69.2759°
Arg perigee
84.1656°
Mean anomaly
275.9504°
Rev number
29,180

§ Raw data

STARLINK-20391 47655U 21012AM  26145.18291618  .00004895  00000+0  16935-3 0  99992 47655  53.1601  69.2759 0001398  84.1656 275.9504 15.31712003291809

JSON: /api/v1/satellites/47655 · /tle

For live sub-satellite position, see the globe view (requires WebGL).

§ Visibility from observer

Set your observer location to see the next 7 days of passes ≥ 10°. The values pass through the URL so the page stays shareable.

No JS? Fill the form by hand. The geolocation button needs JavaScript.